MET-3/5
1 21655U 91056A   05356.73584393  .00000051  00000-0  10000-3 0  9946
2 21655 082.5569 025.4605 0014240 120.5383 239.7221 13.17004607690135
MET-2/21
1 22782U 93055A   05355.85848021 -.00000041  00000-0 -50468-4 0 03850
2 22782 082.5468 112.1322 0021449 320.1969 039.7616 13.83598755621520
OKEAN-4
1 23317U 94066A   05356.89998895  .00000331  00000-0  38427-4 0  8180
2 23317 082.5404 081.4274 0020865 233.5944 126.3354 14.82284330603860
NOAA-14
1 23455U 94089A   05356.14093446  .00000156  00000-0  10676-3 0  9185
2 23455 099.0655 047.3019 0009329 186.3780 173.7297 14.13622126566051
SICH-1
1 23657U 95046A   05355.82958451  .00000291  00000-0  34132-4 0  6229
2 23657 082.5275 223.2745 0022750 224.4342 135.5042 14.81287240555738
NOAA-15
1 25338U 98030A   05356.02743792  .00000037  00000-0  34152-4 0  3201
2 25338 098.5143 358.6606 0010622 166.6596 193.4855 14.24554750395499
RESURS
1 25394U 98043A   05356.86175659  .00000037  00000-0  34556-4 0  2599
2 25394 098.5196 060.4959 0001491 003.5139 356.6051 14.24091686387300
FENGYUN1
1 25730U 99025A   05356.58246014 -.00000255  00000-0 -11666-3 0  6085
2 25730 098.6155 350.9143 0013809 286.0875 073.8778 14.11803418341093
OKEAN-0
1 25860U 99039A   05356.63463108  .00000068  00000-0  17733-4 0  6212
2 25860 097.7442 014.1128 0000985 045.3415 314.7898 14.73323831345756
NOAA-16
1 26536U 00055A   05356.03429438  .00000137  00000-0  99002-4 0  6682
2 26536 099.0431 315.8108 0009920 259.6669 100.3421 14.12300178270578
NOAA-17
1 27453U 02032A   05356.14500706  .00000171  00000-0  93923-4 0  6952
2 27453 098.6431 066.6398 0011211 226.8066 133.2179 14.23734783181589
NOAA-18
1 28654U 05018A   05356.27619883 -.00000049  00000-0 -29982-5 0  2883
2 28654 098.7693 298.5277 0014682 005.5810 354.5540 14.10912160 30430
HUBBLE
1 20580U 90037B   05355.70986092  .00000390  00000-0  17644-4 0  4974
2 20580 028.4662 126.7369 0003901 106.4872 253.6145 14.99924103658423
UARS
1 21701U 91063B   05356.72579350  .00008108  00000-0  16536-3 0  6423
2 21701 056.9775 131.7722 0105375 229.1682 130.0311 15.41438208782075
PO-34
1 25520U 98064B   05356.46784286  .00000670  00000-0  23619-4 0  3515
2 25520 028.4570 133.2544 0005792 116.6439 243.4754 15.16556134395190
ISS
1 25544U 98067A   05357.07403567  .00014509  00000-0  10681-3 0    14
2 25544 051.6465 012.8031 0010744 070.3976 338.5824 15.73283391405411
OO-38
1 26063U 00004C   05355.72904550  .00000082  00000-0  48527-4 0 05054
2 26063 100.1910 249.8185 0036625 246.8377 112.8943 14.35747338309215
NO-45
1 26932U 01043D   05356.70466015 -.00000139  00000-0 -22098-4 0  1990
2 26932 067.0572 101.9286 0005082 292.3748 067.6750 14.29510117220745
